Vorticity
2 2 2 2 3 3 4 4 5 5 4 4 3 2 4 6 7 8 8 8 8 7 7 6 5 5 5 6 6 6 6 6 6 6 6 6 6 5 6 6 6 6 6 6 6 6 6 5 3 2 3 3 3 3 2 2 2 2 2 1 2 3 4 4 6 7 6 5 4 5 7 7 10 13 13 8 4 5 5 3 4 4 3 3 3 3 4 5
2 2 2 3 3 4 5 5 5 5 4 4 3 3 5 6 8 8 8 8 7 6 5 4 4 4 3 4 4 4 4 5 5 5 6 6 6 6 6 6 6 6 6 6 6 5 5 5 4 2 2 3 3 3 2 2 2 1 2 2 3 3 4 6 7 6 6 5 5 7 8 7 8 11 12 10 6 5 5 4 6 6 4 4 3 3 4 5
2 2 2 3 4 5 5 6 6 5 5 4 3 4 6 7 8 8 8 7 5 5 4 3 3 3 3 3 3 3 3 3 3 3 4 4 4 5 5 5 5 5 5 5 6 6 5 5 4 4 4 3 3 3 2 2 2 1 2 1 3 4 4 7 7 5 6 6 6 8 8 6 8 10 12 12 9 6 4 4 6 5 4 3 3 4 5 6
2 2 3 4 5 5 6 6 6 6 5 4 4 4 6 8 9 8 7 5 4 3 3 3 2 2 3 2 3 3 3 3 3 3 3 4 4 4 5 5 5 5 5 5 6 6 6 5 5 4 4 4 4 3 2 2 2 2 1 1 4 5 6 8 6 6 7 7 8 8 8 6 7 9 9 9 8 6 4 4 5 4 4 3 3 4 5 7
3 3 5 5 6 7 7 7 6 6 5 4 4 4 6 8 9 7 5 4 3 3 3 3 2 2 2 3 3 4 4 4 4 4 5 6 6 6 6 6 7 7 7 6 6 7 7 6 5 4 4 4 3 4 3 2 2 1 2 3 4 5 7 7 5 6 7 7 7 6 6 5 5 6 7 7 7 7 5 5 4 4 4 3 3 4 5 7
5 5 6 7 7 7 6 6 6 5 5 4 4 4 7 9 8 6 4 3 3 3 2 2 2 2 3 5 6 6 7 7 7 8 8 8 8 8 8 7 7 7 7 7 7 6 6 6 5 5 5 4 2 3 2 2 3 2 3 4 4 6 8 6 3 4 5 6 6 6 6 5 4 5 6 5 5 6 5 3 3 3 4 4 5 5 6 7
8 7 8 8 7 6 6 6 6 6 5 4 4 5 7 9 7 5 3 3 3 3 2 2 2 3 5 7 7 6 7 7 8 9 8 9 8 7 6 6 6 6 6 5 6 6 5 5 5 4 4 4 3 2 2 2 3 3 3 4 5 7 8 5 3 3 4 6 6 6 6 6 6 6 5 5 4 4 4 3 4 3 4 5 5 5 6 6
9 9 9 7 6 5 5 5 5 5 5 5 4 5 8 8 6 4 3 3 3 2 2 2 3 5 7 6 5 5 6 5 5 6 6 5 5 5 4 4 4 4 4 4 3 4 4 4 3 3 3 3 3 2 2 3 3 4 4 5 6 8 7 4 3 4 4 5 6 6 6 7 8 8 8 6 5 5 5 5 5 4 5 5 5 6 7 7
7 8 8 6 5 4 4 5 5 5 5 5 4 5 8 8 5 4 3 3 2 2 2 2 5 6 5 4 4 4 4 4 3 4 4 3 3 3 3 3 4 4 4 4 4 4 4 4 4 5 4 4 4 4 4 4 5 5 6 7 7 7 6 3 3 4 4 5 5 5 6 7 7 9 9 7 7 8 8 7 6 6 6 5 6 7 7 7
5 5 6 5 5 5 5 5 5 5 5 4 5 6 8 7 5 3 2 3 2 2 2 3 5 5 4 3 3 3 4 3 3 3 4 4 4 3 3 4 4 4 4 4 4 5 5 6 7 7 7 7 7 7 7 7 6 7 7 7 7 6 4 3 3 3 4 4 5 6 6 7 7 7 6 7 10 10 10 10 9 8 7 7 7 8 8 8
6 6 5 5 5 5 6 6 6 6 5 4 5 6 7 6 4 3 2 2 2 2 2 4 6 4 3 3 3 3 4 4 2 2 3 4 4 3 3 3 3 4 4 4 4 5 5 6 7 8 8 8 8 8 8 8 7 7 7 7 7 5 4 3 3 3 3 4 5 6 6 7 7 7 5 7 10 9 10 10 9 8 7 7 7 8 8 8
9 8 8 7 7 6 6 6 6 6 5 4 5 6 7 6 4 3 2 2 2 2 2 4 5 4 2 3 3 2 2 3 3 2 1 1 2 3 2 2 3 3 3 3 3 3 4 5 6 7 8 8 9 8 8 8 8 8 7 7 6 5 4 3 3 3 3 4 6 5 6 8 6 6 7 8 9 9 10 10 9 8 7 7 8 8 8 8
10 10 10 9 8 7 7 7 6 6 5 4 5 6 7 6 4 3 2 2 2 2 3 5 5 3 2 2 3 2 1 1 2 2 2 1 1 1 1 1 1 1 2 2 2 2 3 4 4 5 7 8 8 8 8 8 8 7 7 6 5 4 3 2 2 3 4 4 5 5 7 8 5 6 8 7 8 9 8 8 7 7 6 6 8 8 9 8
10 10 11 11 10 9 8 7 7 6 5 5 5 6 8 6 4 3 2 2 2 2 2 4 5 3 2 3 3 2 2 1 2 2 2 2 2 1 1 1 1 1 1 1 1 1 2 2 2 3 4 6 7 7 8 8 7 7 6 5 5 3 3 3 3 3 3 3 4 4 7 7 5 6 7 7 8 8 8 8 6 5 5 6 7 9 9 9
10 10 11 11 12 11 9 8 8 7 6 5 5 6 7 6 4 3 3 2 2 2 3 3 4 3 2 3 3 2 2 1 1 2 2 2 2 2 2 2 2 1 1 1 1 1 2 2 1 1 2 3 4 6 7 8 7 7 6 5 5 4 4 4 3 2 3 3 3 4 5 7 5 6 7 8 8 9 9 8 7 6 6 6 8 8 9 8
9 9 10 10 11 12 12 10 8 8 6 5 6 7 7 6 5 3 3 3 2 2 2 4 4 3 3 3 2 2 3 2 2 1 1 2 1 1 2 2 2 1 2 1 1 1 1 1 1 1 1 1 3 4 5 5 6 5 5 6 6 5 5 4 3 3 3 3 4 4 5 7 7 6 6 8 9 9 9 8 7 6 6 7 8 8 8 8
7 8 9 9 10 11 12 12 11 10 8 6 6 7 8 7 5 4 3 2 2 2 2 3 4 3 2 3 3 2 2 2 2 2 2 2 1 1 1 1 1 1 1 1 1 2 2 2 1 1 1 1 1 3 3 3 4 4 5 6 7 6 5 5 4 4 3 2 3 4 5 6 6 5 7 8 9 9 10 9 8 7 7 7 7 8 8 8
4 6 7 8 8 9 11 12 13 12 10 8 8 8 8 7 6 4 4 3 2 2 3 2 4 4 3 3 2 2 3 3 2 2 2 2 2 1 2 2 2 1 2 2 2 1 2 2 2 2 2 3 2 1 1 2 3 4 5 6 6 7 6 5 4 3 3 3 3 3 4 5 5 5 7 8 9 9 10 10 9 8 6 6 7 7 8 8
4 4 5 7 7 8 9 10 11 12 11 10 10 9 8 7 7 5 4 4 3 2 3 3 3 3 3 2 2 2 2 2 2 2 2 2 2 1 2 2 2 2 2 2 2 2 2 2 2 3 3 4 2 1 2 2 3 3 4 5 6 6 6 5 5 3 3 3 3 4 4 6 7 7 6 6 8 8 8 10 11 9 6 5 6 7 8 8
3 3 4 5 6 7 8 9 10 10 10 11 10 10 10 9 8 7 6 4 4 3 2 2 3 3 2 1 2 3 2 2 2 2 2 1 1 1 2 2 2 2 2 1 2 2 2 2 2 3 3 3 3 3 3 2 2 3 3 5 5 6 7 6 4 3 3 4 4 6 8 9 10 10 8 5 5 7 7 8 10 10 8 5 5 7 10 10
3 3 4 4 4 6 7 7 9 9 8 9 10 9 9 10 9 7 6 5 4 4 2 2 2 2 3 2 1 1 2 2 2 2 2 2 2 1 1 2 2 2 2 2 2 2 2 2 3 3 2 2 3 3 2 2 2 2 3 4 4 6 6 4 4 3 4 6 5 7 10 10 10 12 12 9 8 7 7 7 8 9 8 6 6 6 7 9
4 3 3 4 4 3 5 6 7 7 7 7 8 9 8 8 10 9 7 6 5 5 3 3 2 2 2 2 2 2 1 1 2 2 2 2 2 2 2 2 2 2 2 2 3 3 3 2 2 3 3 2 4 3 2 3 2 2 3 3 4 6 5 4 3 3 4 5 5 7 11 10 11 13 13 14 13 9 7 7 8 8 8 7 5 4 5 7
3 4 3 3 4 4 3 5 6 5 6 7 5 7 9 7 8 10 8 7 6 6 5 2 2 2 2 2 1 2 2 1 2 2 2 3 2 2 2 2 3 3 3 3 3 3 3 3 2 2 3 3 3 3 4 4 3 3 2 3 6 6 5 4 3 3 4 5 6 8 11 10 9 11 10 13 15 13 9 8 8 8 8 8 5 4 6 8
2 1 4 2 2 5 4 4 5 4 3 5 6 6 7 7 7 8 8 9 6 4 6 5 3 2 1 3 3 2 2 2 2 2 1 3 3 4 3 2 3 2 3 3 3 3 3 3 3 2 3 3 3 4 4 4 3 2 2 4 8 6 4 3 3 4 4 6 7 7 12 10 8 9 7 9 14 14 13 10 7 8 9 7 6 4 6 8
9 2 2 4 3 2 4 5 4 4 5 2 4 7 6 5 7 7 7 11 10 3 4 7 4 4 2 2 2 2 3 2 2 3 2 2 3 3 3 2 3 3 4 4 3 4 3 3 4 3 3 3 3 4 4 5 5 3 4 5 6 3 3 4 5 6 5 8 8 8 12 11 7 8 8 10 13 12 14 12 8 9 10 8 6 4 5 8
17 11 2 0 5 3 1 6 4 4 5 3 4 5 6 5 6 8 5 12 15 2 2 8 5 5 4 3 4 2 4 4 2 3 2 2 3 3 3 3 3 3 4 5 6 4 1 3 5 4 4 4 3 5 7 7 5 3 4 6 6 5 4 6 7 8 9 10 9 8 10 10 7 5 9 14 14 13 16 16 11 8 8 8 7 5 6 8
12 21 15 2 1 4 3 2 4 5 3 4 6 3 5 4 4 8 2 12 23 4 -2 7 6 5 3 3 5 4 6 4 2 6 4 3 4 3 4 4 3 5 5 6 7 5 0 1 4 3 3 3 4 6 7 5 4 4 6 7 7 5 4 4 5 7 9 8 9 8 6 12 12 4 9 16 13 15 20 17 13 11 9 8 7 7 7 7
3 10 23 19 2 -1 6 2 0 6 4 3 4 3 6 3 4 7 -0 13 26 4 -5 5 5 4 2 2 4 4 7 3 -1 5 5 5 6 4 4 4 4 4 3 3 4 4 2 1 2 4 5 5 6 7 6 6 7 8 8 6 2 1 1 2 5 6 6 6 7 5 4 14 14 2 6 14 10 13 18 15 12 11 9 9 9 9 9 9
9 1 13 37 27 2 -0 2 1 4 4 3 4 4 6 3 5 4 0 17 23 1 -4 2 2 5 3 2 4 3 6 5 1 3 3 4 5 4 4 4 4 3 1 4 6 5 5 4 4 4 5 7 8 7 7 8 8 5 4 2 -0 1 4 6 8 7 7 8 7 7 7 13 14 7 8 12 8 8 11 11 11 10 9 9 8 8 8 8
17 8 1 23 39 23 7 2 2 4 4 3 4 5 5 5 7 4 4 15 14 3 2 1 -0 3 3 3 5 3 4 5 3 3 3 3 4 4 5 4 3 3 3 4 5 5 5 6 6 6 6 7 5 3 3 3 2 2 3 3 3 6 7 8 8 7 7 9 9 11 12 13 18 15 8 8 6 7 10 7 6 8 9 9 9 8 7 7
12 17 8 11 23 28 25 14 1 1 4 3 5 5 3 6 5 1 8 11 7 5 3 1 3 2 -0 2 4 5 5 4 4 3 2 2 3 2 2 3 3 3 3 2 3 6 6 6 6 5 3 -0 -1 1 4 5 5 5 4 3 5 7 7 6 6 6 6 8 8 11 13 15 18 11 3 5 5 6 13 13 10 10 9 9 9 9 10 10
0 11 12 10 7 10 22 25 18 11 5 3 8 6 2 7 4 -3 2 5 8 11 0 -2 4 2 0 2 1 4 5 4 4 3 3 3 2 3 1 1 2 1 0 -0 2 4 3 3 2 2 1 1 5 8 8 6 4 2 1 3 6 7 7 7 7 8 7 7 7 7 9 13 12 5 5 11 10 7 11 14 15 14 13 12 9 7 7 7
-5 4 7 4 4 9 12 14 20 23 14 5 8 11 8 4 -1 -1 4 1 5 9 1 1 5 1 1 0 -2 1 1 4 5 3 4 4 3 4 3 2 2 2 4 4 5 5 4 4 3 3 5 5 6 5 4 3 0 -0 3 7 9 8 11 11 9 10 9 6 6 6 8 10 5 3 7 9 7 7 8 10 11 12 13 13 12 9 7 6
-9 -3 7 5 3 11 9 3 11 23 25 16 8 9 15 11 -0 -2 2 2 5 6 -1 -0 3 2 6 5 2 0 -2 1 3 2 4 4 3 4 3 6 6 6 8 7 6 6 6 5 3 4 6 4 3 3 3 3 2 4 7 9 9 10 14 12 8 9 7 5 5 5 7 8 3 3 6 5 5 7 8 9 11 11 12 11 11 11 9 9
-4 -15 -5 5 3 4 8 6 7 10 14 20 16 3 2 13 20 18 8 -3 -1 5 3 -1 -3 -3 1 3 4 3 1 0 -1 -0 2 2 3 5 4 5 5 5 6 5 5 4 4 5 4 4 5 4 4 4 3 5 5 8 11 12 13 14 13 10 8 8 7 8 8 7 9 8 5 9 9 6 8 10 9 9 9 10 11 9 8 8 8 8
10 -6 -7 2 -1 6 25 29 24 16 7 14 25 15 -2 -3 12 29 31 17 5 4 4 3 3 2 1 1 1 1 2 2 1 1 2 3 4 4 3 3 3 4 4 4 7 6 6 8 5 4 5 5 6 6 6 8 8 8 8 9 12 11 8 8 9 8 8 9 8 9 10 7 8 14 12 7 8 11 10 10 10 11 12 12 11 9 9 9
14 8 4 1 -19 -20 8 21 18 15 9 7 15 21 19 12 9 15 23 25 25 21 13 8 5 2 3 5 3 3 3 3 3 3 2 3 4 2 2 3 4 5 6 7 10 10 8 9 7 4 5 4 4 4 5 6 7 9 10 9 9 6 4 6 7 7 7 8 8 8 7 6 9 8 2 3 7 11 12 11 12 12 11 13 14 13 12 10
15 12 12 11 -11 -32 -24 -8 -2 2 6 6 6 7 11 16 18 17 11 6 12 20 20 20 18 11 8 8 5 4 6 5 6 5 4 4 6 4 -0 1 2 2 2 2 4 6 5 7 8 4 2 3 2 1 3 3 5 8 7 3 1 1 4 7 6 6 7 6 9 9 7 10 10 1 -4 2 8 9 9 10 10 9 10 12 14 15 15 12
14 16 15 12 3 -16 -24 -16 -5 1 2 1 7 10 7 10 13 19 29 19 -0 -3 2 6 13 16 16 17 15 11 8 7 6 6 6 6 7 5 0 1 3 1 1 3 5 8 7 7 7 3 1 4 5 5 8 9 10 10 7 4 3 4 6 6 5 5 5 5 6 6 7 8 4 -1 -1 4 7 6 5 7 8 7 7 9 11 15 16 14
10 17 19 12 8 2 -5 -7 -5 4 9 2 0 3 6 12 4 4 33 43 19 7 9 6 5 7 9 12 16 17 15 14 14 12 12 13 13 10 3 2 3 1 3 5 5 7 6 6 9 10 9 9 10 13 15 16 14 12 9 8 7 8 8 6 3 3 3 4 3 3 7 6 0 1 4 4 5 4 3 7 9 8 5 3 4 7 10 11
10 17 18 11 11 10 4 2 -6 -6 7 11 5 1 1 6 1 -3 17 32 26 20 19 17 12 6 5 4 4 7 9 11 13 12 13 16 20 19 13 10 10 8 7 8 8 7 10 15 17 17 15 11 9 10 9 7 6 6 7 8 9 11 10 7 5 5 5 5 4 6 11 12 8 6 6 5 4 2 4 8 9 9 8 3 2 5 7 10
8 16 17 9 13 12 3 5 2 -10 -4 4 3 3 4 3 0 1 7 11 16 24 24 21 19 14 11 10 8 7 6 7 8 9 9 10 13 17 16 11 9 8 7 9 9 6 8 12 11 10 10 8 6 5 7 7 8 7 7 8 11 11 10 12 12 12 12 9 7 7 7 8 8 7 5 4 4 4 5 8 8 7 6 4 5 7 9 11
7 14 16 8 12 15 4 5 10 5 3 2 -0 2 3 3 3 3 5 6 6 11 18 21 25 27 24 20 17 16 14 14 14 12 10 7 6 10 14 13 11 10 10 11 11 10 11 14 15 16 16 15 13 11 11 11 10 11 11 12 14 13 15 17 13 13 13 8 8 7 2 0 2 5 5 3 3 5 3 4 6 5 3 3 4 6 6 10
10 13 16 10 10 14 7 1 3 9 14 8 5 11 5 2 8 3 2 11 7 0 6 10 11 14 16 15 14 13 13 14 15 15 14 11 7 5 8 14 15 12 13 15 16 15 14 14 15 18 20 19 14 10 8 8 10 16 18 14 12 11 12 11 10 14 12 7 10 7 -0 3 6 4 5 5 4 4 1 1 4 6 8 7 3 2 3 6
13 12 13 11 9 11 11 6 -6 -3 14 9 -1 13 17 6 4 -0 -2 8 9 2 4 7 7 8 7 7 10 12 11 9 11 14 15 16 14 8 6 8 7 8 8 8 8 6 3 3 3 5 8 8 7 9 10 8 9 14 13 9 9 9 8 10 12 9 3 4 9 2 -5 3 9 5 6 8 5 2 2 3 6 10 12 8 2 0 1 4
14 13 12 11 10 9 11 15 2 -10 9 17 -1 -4 10 13 8 0 -4 1 8 8 5 6 8 7 5 5 6 9 12 11 10 10 10 12 14 15 16 11 7 8 8 5 5 3 3 6 6 6 7 6 5 8 7 1 1 7 6 4 7 6 4 7 5 -4 0 9 7 3 5 6 7 8 8 8 7 6 6 6 7 11 8 4 3 1 -1 2
12 12 11 9 12 11 5 11 12 -5 -6 17 21 3 -5 5 12 6 -2 -3 -1 1 1 4 6 5 5 6 5 5 7 8 10 10 9 9 13 18 19 14 10 8 5 5 7 4 4 7 8 9 12 11 9 8 5 1 2 4 3 3 4 3 1 1 -3 -3 10 12 -0 6 16 8 6 13 12 9 10 8 5 3 4 7 5 3 4 2 -0 2
11 13 11 8 15 22 12 3 10 8 -10 -8 13 17 5 1 4 8 7 1 -6 -6 -4 -2 2 6 6 4 3 6 6 6 8 9 6 6 15 24 20 11 7 4 3 6 10 11 13 16 16 15 16 17 18 16 12 7 4 2 2 4 5 3 1 -0 2 8 14 6 -4 4 9 -0 -1 6 5 6 9 6 1 0 3 6 6 5 5 4 3 4
9 12 11 6 8 21 27 14 4 8 8 1 0 1 -0 1 1 3 7 5 1 2 6 6 4 3 3 1 5 10 7 4 7 7 4 2 10 22 23 16 13 13 13 14 16 17 15 16 18 18 20 19 18 19 20 15 9 5 3 5 7 6 4 4 8 11 9 4 3 6 6 1 0 1 1 4 6 3 2 4 9 13 9 6 6 4 2 1
8 10 10 7 3 4 15 25 20 7 2 9 16 11 0 -1 -1 -4 -2 5 6 3 7 13 9 1 -1 2 14 23 15 6 7 7 8 9 6 8 13 15 16 16 17 16 13 12 14 18 20 19 20 18 9 11 20 20 16 14 10 6 5 4 3 6 10 9 7 9 13 16 15 13 12 13 12 8 4 5 6 9 14 15 11 7 5 3 1 1
9 9 8 8 10 5 -1 6 23 29 13 -1 8 19 18 12 4 -4 -6 -2 -1 -2 6 13 5 -2 -3 -4 8 21 16 8 9 10 14 16 9 2 5 9 7 3 6 13 14 11 11 13 14 13 19 25 22 17 18 18 19 22 18 12 10 9 8 9 9 7 7 11 13 15 14 13 15 19 15 10 9 10 9 9 10 8 7 8 6 4 3 2
13 12 9 5 7 12 8 -2 -1 18 31 23 8 5 13 23 16 3 1 2 -4 -4 7 9 -1 -1 3 -4 -5 1 3 9 16 13 13 19 19 12 5 5 6 1 -0 8 13 13 12 8 6 6 9 16 21 17 16 19 17 13 13 13 16 17 14 12 10 4 2 6 8 9 11 11 14 16 14 13 13 10 7 6 5 3 3 4 5 4 4 3
Height
5826 5828 5830 5832 5834 5835 5837 5839 5840 5842 5844 5845 5847 5848 5850 5851 5852 5853 5855 5856 5858 5859 5860 5861 5862 5864 5865 5866 5867 5868 5869 5870 5871 5872 5874 5875 5876 5877 5878 5879 5880 5881 5882 5882 5883 5884 5885 5886 5887 5888 5889 5889 5890 5890 5891 5892 5892 5893 5893 5893 5893 5892 5892 5892 5892 5892 5892 5891 5891 5890 5889 5889 5889 5889 5889 5889 5889 5889 5889 5889 5889 5889 5888 5888 5887 5887 5887 5887
5823 5825 5827 5829 5831 5833 5835 5837 5838 5840 5842 5843 5845 5846 5848 5849 5850 5852 5853 5855 5856 5858 5859 5860 5861 5863 5864 5865 5866 5867 5868 5869 5870 5871 5873 5874 5875 5876 5877 5878 5879 5880 5881 5881 5882 5884 5885 5885 5886 5887 5887 5888 5889 5890 5890 5891 5891 5892 5892 5892 5892 5892 5891 5891 5891 5891 5891 5890 5890 5890 5889 5888 5888 5888 5889 5888 5888 5888 5888 5887 5888 5888 5888 5888 5887 5887 5887 5887
5820 5822 5824 5827 5829 5831 5833 5835 5836 5838 5840 5841 5843 5844 5846 5847 5849 5850 5852 5853 5855 5856 5857 5859 5860 5861 5863 5864 5865 5866 5867 5868 5869 5870 5871 5873 5874 5875 5876 5877 5878 5879 5880 5881 5882 5883 5884 5884 5885 5886 5887 5887 5888 5888 5889 5890 5890 5890 5891 5891 5891 5891 5891 5890 5890 5890 5889 5889 5889 5889 5888 5887 5888 5888 5888 5888 5887 5887 5886 5886 5887 5887 5887 5887 5887 5886 5886 5886
5816 5819 5821 5823 5826 5828 5830 5832 5834 5836 5838 5839 5841 5842 5844 5845 5847 5848 5850 5852 5853 5855 5856 5857 5859 5860 5861 5862 5864 5865 5866 5867 5868 5869 5870 5871 5873 5874 5875 5876 5877 5878 5879 5880 5881 5882 5883 5883 5884 5885 5886 5886 5886 5887 5888 5888 5889 5889 5889 5890 5890 5890 5890 5890 5889 5888 5888 5888 5888 5888 5887 5887 5887 5887 5887 5887 5887 5886 5885 5885 5885 5886 5886 5885 5885 5885 5885 5885
5813 5815 5818 5820 5822 5825 5827 5829 5831 5833 5835 5837 5839 5840 5842 5843 5845 5847 5848 5850 5851 5853 5854 5856 5857 5858 5860 5861 5862 5863 5864 5866 5867 5868 5869 5870 5871 5872 5873 5874 5875 5876 5877 5879 5880 5881 5882 5882 5883 5884 5884 5885 5885 5886 5886 5887 5887 5888 5888 5888 5888 5888 5889 5889 5889 5888 5887 5887 5887 5887 5887 5886 5886 5886 5886 5886 5886 5885 5885 5884 5884 5884 5884 5884 5884 5884 5884 5884
5809 5811 5814 5816 5819 5821 5824 5826 5828 5830 5832 5834 5836 5838 5839 5841 5843 5845 5846 5848 5849 5851 5852 5854 5855 5857 5858 5860 5861 5862 5863 5864 5865 5867 5868 5869 5870 5871 5872 5873 5874 5875 5876 5877 5878 5879 5880 5881 5881 5883 5883 5883 5883 5884 5885 5886 5886 5886 5886 5887 5887 5887 5887 5888 5888 5887 5886 5885 5885 5885 5885 5885 5885 5885 5885 5885 5884 5884 5884 5884 5883 5883 5882 5882 5882 5882 5882 5882
5806 5808 5810 5813 5815 5818 5820 5823 5825 5827 5829 5831 5833 5835 5837 5839 5841 5842 5844 5846 5847 5849 5851 5852 5853 5855 5856 5858 5859 5860 5861 5863 5864 5865 5867 5868 5869 5870 5871 5872 5873 5874 5875 5876 5877 5878 5878 5879 5880 5881 5882 5881 5882 5883 5884 5884 5884 5884 5885 5885 5885 5885 5885 5886 5886 5886 5885 5884 5884 5884 5884 5884 5883 5883 5883 5883 5883 5883 5883 5883 5883 5882 5881 5881 5881 5881 5881 5881
5802 5805 5807 5809 5812 5814 5817 5819 5821 5824 5826 5828 5830 5832 5834 5836 5838 5840 5842 5844 5845 5847 5849 5850 5852 5853 5854 5856 5857 5858 5860 5861 5863 5864 5865 5866 5868 5869 5870 5871 5872 5873 5874 5875 5876 5876 5877 5878 5879 5880 5880 5880 5880 5881 5882 5882 5882 5882 5883 5884 5884 5883 5884 5884 5884 5884 5884 5883 5882 5882 5882 5882 5882 5882 5881 5880 5881 5881 5881 5882 5882 5881 5880 5879 5879 5879 5879 5879
5799 5801 5804 5806 5808 5811 5813 5815 5818 5820 5823 5825 5827 5829 5831 5834 5836 5838 5839 5841 5843 5845 5846 5848 5849 5851 5852 5854 5855 5857 5858 5860 5861 5862 5864 5865 5866 5867 5869 5870 5871 5872 5872 5873 5874 5875 5875 5876 5877 5878 5879 5878 5878 5879 5880 5881 5881 5881 5881 5882 5882 5882 5882 5882 5882 5882 5882 5881 5880 5880 5880 5880 5880 5880 5879 5878 5879 5879 5879 5880 5879 5879 5879 5878 5878 5878 5878 5878
5795 5798 5800 5803 5806 5808 5810 5812 5814 5817 5819 5821 5824 5826 5828 5830 5833 5835 5836 5838 5840 5842 5844 5845 5847 5848 5850 5852 5853 5855 5856 5858 5859 5861 5862 5863 5865 5866 5867 5868 5869 5870 5871 5872 5872 5873 5874 5875 5875 5876 5877 5877 5877 5877 5878 5879 5879 5879 5879 5880 5880 5881 5880 5880 5880 5880 5880 5879 5879 5878 5878 5878 5878 5878 5876 5876 5877 5877 5877 5877 5877 5877 5877 5877 5876 5877 5877 5876
5791 5794 5797 5799 5802 5804 5807 5809 5811 5814 5816 5818 5820 5822 5825 5827 5829 5831 5833 5835 5837 5839 5841 5842 5844 5845 5847 5849 5851 5852 5854 5856 5857 5859 5860 5862 5863 5864 5865 5866 5867 5868 5869 5870 5871 5872 5872 5873 5874 5874 5875 5875 5875 5875 5876 5876 5877 5877 5878 5878 5878 5879 5878 5878 5878 5879 5878 5877 5877 5877 5877 5876 5876 5875 5874 5874 5874 5874 5875 5875 5875 5875 5875 5875 5875 5875 5875 5875
5787 5790 5793 5795 5798 5801 5803 5805 5808 5810 5813 5815 5817 5819 5822 5824 5826 5828 5830 5832 5834 5836 5837 5839 5841 5843 5844 5846 5848 5850 5852 5853 5855 5857 5858 5859 5861 5862 5863 5864 5865 5867 5868 5869 5869 5870 5871 5871 5872 5872 5873 5873 5873 5873 5874 5874 5875 5875 5876 5876 5876 5876 5876 5876 5877 5877 5876 5875 5875 5875 5875 5874 5873 5873 5872 5871 5872 5872 5872 5872 5872 5872 5872 5873 5873 5873 5873 5873
5783 5786 5788 5791 5794 5797 5799 5802 5804 5807 5809 5812 5814 5817 5819 5821 5824 5826 5827 5829 5831 5833 5835 5836 5838 5840 5842 5843 5846 5848 5849 5851 5853 5854 5856 5857 5859 5860 5861 5863 5864 5865 5866 5867 5868 5868 5869 5869 5870 5871 5871 5871 5871 5872 5872 5872 5873 5873 5874 5873 5873 5874 5875 5875 5875 5875 5874 5874 5873 5873 5873 5873 5871 5871 5870 5869 5869 5869 5870 5870 5870 5870 5870 5871 5871 5871 5871 5870
5780 5782 5784 5787 5790 5793 5795 5798 5800 5803 5805 5808 5811 5813 5816 5818 5820 5822 5824 5826 5828 5830 5831 5833 5835 5837 5839 5841 5843 5845 5847 5849 5850 5852 5853 5855 5856 5858 5859 5860 5862 5863 5864 5865 5866 5866 5867 5867 5868 5869 5869 5869 5869 5870 5870 5870 5870 5871 5871 5871 5871 5872 5873 5873 5873 5872 5872 5871 5871 5870 5872 5871 5869 5869 5868 5867 5867 5867 5867 5867 5868 5868 5868 5868 5869 5868 5868 5868
5776 5778 5780 5783 5786 5788 5791 5794 5796 5799 5801 5804 5807 5809 5812 5814 5817 5819 5821 5823 5825 5827 5829 5830 5832 5834 5836 5838 5840 5843 5845 5846 5848 5849 5851 5852 5854 5855 5856 5858 5859 5860 5861 5862 5863 5864 5865 5865 5866 5866 5867 5867 5868 5868 5868 5868 5868 5868 5868 5868 5869 5870 5870 5871 5870 5870 5870 5869 5868 5868 5870 5870 5867 5866 5866 5866 5865 5865 5865 5866 5865 5866 5866 5866 5866 5866 5866 5865
5773 5775 5777 5779 5782 5784 5786 5789 5792 5795 5798 5800 5803 5805 5807 5810 5813 5815 5817 5819 5821 5823 5825 5827 5829 5831 5833 5835 5838 5840 5842 5843 5845 5847 5848 5850 5851 5852 5854 5855 5856 5858 5859 5860 5861 5862 5862 5863 5864 5864 5865 5865 5866 5866 5866 5865 5865 5865 5865 5866 5867 5867 5868 5868 5868 5867 5867 5866 5866 5866 5867 5868 5866 5864 5864 5864 5863 5863 5864 5863 5863 5863 5863 5864 5864 5863 5863 5863
5769 5771 5773 5776 5778 5780 5782 5785 5787 5791 5794 5796 5798 5801 5803 5805 5808 5810 5813 5815 5817 5819 5822 5823 5826 5828 5830 5833 5835 5837 5839 5840 5842 5844 5845 5847 5848 5849 5851 5852 5853 5855 5856 5857 5858 5859 5860 5860 5861 5862 5862 5863 5863 5863 5863 5863 5863 5862 5863 5864 5864 5864 5865 5865 5865 5864 5864 5863 5863 5863 5864 5866 5864 5862 5862 5861 5861 5861 5861 5861 5861 5861 5861 5861 5860 5860 5860 5860
5764 5767 5769 5772 5774 5776 5778 5781 5783 5786 5789 5792 5794 5796 5798 5801 5803 5806 5808 5811 5813 5816 5818 5820 5822 5825 5827 5830 5832 5834 5835 5837 5839 5841 5842 5844 5845 5846 5848 5849 5850 5852 5853 5854 5855 5856 5857 5857 5858 5859 5860 5860 5860 5860 5860 5860 5861 5860 5861 5861 5862 5862 5862 5862 5862 5861 5861 5860 5860 5860 5861 5863 5862 5860 5859 5858 5858 5858 5859 5859 5859 5859 5858 5857 5857 5857 5857 5857
5760 5763 5765 5768 5770 5772 5775 5777 5779 5782 5785 5787 5789 5791 5794 5796 5799 5801 5803 5806 5809 5811 5814 5816 5818 5821 5823 5826 5828 5830 5831 5833 5835 5837 5839 5840 5842 5843 5845 5846 5847 5849 5850 5851 5851 5852 5853 5855 5856 5857 5858 5857 5857 5857 5857 5857 5858 5858 5858 5858 5859 5859 5859 5859 5858 5858 5858 5857 5857 5857 5858 5860 5860 5858 5856 5855 5854 5855 5856 5856 5856 5856 5855 5854 5854 5854 5854 5854
5756 5758 5761 5763 5766 5768 5771 5773 5775 5778 5781 5783 5785 5787 5789 5792 5794 5796 5799 5802 5804 5807 5809 5811 5814 5817 5819 5822 5824 5826 5828 5830 5832 5834 5835 5837 5839 5840 5841 5843 5844 5845 5846 5847 5848 5849 5850 5852 5853 5854 5854 5853 5853 5854 5854 5854 5855 5855 5855 5855 5855 5856 5856 5855 5854 5854 5854 5853 5854 5854 5853 5856 5857 5856 5854 5852 5851 5852 5853 5853 5853 5853 5852 5851 5851 5851 5851 5851
5751 5753 5756 5759 5761 5764 5766 5769 5772 5775 5777 5779 5781 5783 5785 5787 5789 5791 5794 5797 5799 5802 5804 5807 5810 5813 5816 5818 5820 5822 5824 5826 5828 5830 5832 5834 5835 5837 5838 5839 5840 5841 5842 5844 5845 5846 5847 5849 5850 5850 5850 5850 5851 5851 5852 5851 5851 5852 5852 5851 5852 5852 5852 5852 5850 5849 5849 5848 5849 5850 5849 5851 5853 5852 5851 5850 5849 5849 5849 5849 5849 5849 5848 5848 5848 5848 5847 5847
5745 5748 5751 5754 5757 5759 5762 5765 5767 5771 5773 5775 5777 5778 5780 5782 5784 5786 5789 5791 5793 5796 5799 5802 5806 5809 5812 5814 5816 5819 5821 5822 5824 5826 5828 5830 5831 5832 5833 5835 5836 5837 5839 5840 5841 5843 5844 5846 5846 5846 5846 5847 5847 5848 5848 5848 5848 5848 5848 5848 5848 5848 5848 5848 5847 5846 5844 5843 5845 5845 5843 5846 5848 5848 5849 5848 5846 5846 5845 5845 5845 5845 5844 5845 5845 5844 5844 5844
5739 5743 5746 5749 5752 5754 5758 5760 5763 5767 5769 5771 5773 5773 5775 5777 5779 5781 5783 5785 5788 5791 5794 5798 5801 5804 5807 5809 5812 5814 5816 5818 5820 5821 5823 5825 5826 5828 5830 5832 5833 5834 5835 5836 5838 5839 5841 5842 5842 5843 5843 5844 5844 5844 5845 5845 5845 5845 5845 5845 5844 5844 5843 5843 5843 5842 5841 5839 5840 5840 5838 5841 5844 5844 5845 5845 5842 5843 5842 5841 5842 5841 5841 5842 5841 5841 5841 5841
5734 5738 5740 5745 5747 5750 5753 5755 5759 5763 5765 5767 5767 5768 5770 5771 5773 5775 5777 5779 5782 5787 5790 5793 5796 5799 5803 5805 5807 5810 5812 5814 5815 5817 5819 5820 5822 5824 5826 5828 5828 5830 5831 5832 5833 5835 5837 5837 5838 5839 5839 5840 5840 5841 5841 5841 5841 5841 5841 5841 5841 5840 5839 5839 5839 5837 5837 5835 5835 5835 5832 5835 5840 5840 5842 5842 5839 5838 5838 5837 5837 5837 5837 5837 5837 5837 5837 5836
5730 5732 5735 5739 5741 5745 5748 5751 5756 5758 5759 5762 5761 5762 5764 5766 5768 5770 5772 5772 5776 5782 5786 5788 5792 5795 5798 5800 5803 5806 5807 5809 5812 5813 5815 5816 5818 5820 5821 5822 5824 5826 5827 5828 5829 5831 5833 5833 5834 5835 5835 5837 5837 5837 5837 5837 5837 5837 5838 5838 5836 5836 5835 5835 5834 5833 5832 5832 5833 5831 5826 5828 5835 5837 5838 5839 5836 5834 5834 5833 5833 5833 5833 5833 5833 5833 5832 5832
5724 5726 5730 5733 5736 5740 5743 5748 5752 5751 5754 5756 5755 5756 5759 5761 5763 5765 5767 5766 5769 5778 5782 5785 5788 5790 5794 5796 5799 5801 5801 5805 5808 5809 5810 5811 5813 5815 5816 5818 5820 5822 5823 5824 5825 5827 5829 5830 5830 5831 5831 5832 5833 5834 5834 5833 5833 5833 5834 5834 5832 5831 5831 5830 5830 5828 5827 5827 5829 5828 5824 5822 5827 5833 5835 5834 5832 5831 5831 5829 5829 5829 5829 5829 5829 5829 5828 5828
5717 5721 5724 5726 5730 5734 5738 5743 5744 5745 5750 5749 5748 5751 5754 5756 5757 5760 5762 5759 5762 5774 5779 5780 5783 5786 5790 5791 5793 5795 5795 5801 5804 5804 5806 5807 5808 5810 5811 5813 5816 5818 5819 5819 5820 5822 5824 5825 5826 5827 5827 5828 5830 5831 5830 5829 5829 5830 5830 5829 5827 5827 5826 5826 5826 5824 5823 5822 5822 5824 5823 5817 5819 5827 5831 5830 5829 5829 5827 5826 5825 5825 5825 5825 5825 5825 5825 5824
5711 5714 5717 5720 5724 5727 5731 5735 5738 5741 5742 5741 5742 5746 5748 5749 5750 5755 5755 5750 5757 5770 5773 5776 5780 5781 5784 5785 5787 5789 5791 5796 5798 5798 5801 5802 5803 5805 5806 5809 5811 5813 5813 5814 5817 5819 5819 5820 5822 5823 5823 5825 5826 5826 5825 5825 5825 5825 5825 5824 5824 5823 5822 5822 5821 5820 5819 5817 5816 5820 5822 5814 5811 5820 5825 5825 5827 5826 5824 5823 5822 5821 5821 5820 5820 5820 5820 5820
5706 5707 5711 5714 5716 5720 5724 5729 5734 5735 5734 5736 5738 5739 5741 5742 5744 5748 5744 5743 5756 5766 5768 5772 5775 5776 5778 5779 5781 5784 5787 5790 5791 5794 5797 5796 5798 5800 5802 5805 5806 5807 5809 5810 5813 5814 5814 5815 5817 5818 5820 5821 5822 5821 5821 5821 5821 5821 5821 5820 5820 5819 5818 5818 5816 5816 5814 5810 5812 5818 5819 5811 5805 5812 5821 5822 5823 5822 5821 5821 5819 5818 5817 5816 5816 5816 5816 5816
5698 5702 5705 5706 5709 5714 5719 5725 5729 5726 5728 5731 5731 5733 5735 5734 5738 5738 5732 5741 5757 5760 5761 5767 5770 5772 5773 5774 5776 5780 5782 5785 5787 5789 5790 5792 5794 5796 5798 5800 5801 5802 5804 5806 5808 5808 5809 5811 5812 5813 5815 5817 5817 5817 5817 5817 5817 5818 5817 5816 5816 5814 5814 5813 5811 5811 5808 5804 5810 5816 5816 5808 5799 5804 5816 5819 5819 5818 5817 5817 5815 5815 5814 5813 5812 5812 5812 5812
5692 5696 5698 5700 5705 5709 5713 5720 5722 5719 5722 5724 5723 5726 5726 5727 5730 5725 5726 5745 5757 5752 5754 5761 5764 5767 5769 5770 5772 5775 5777 5779 5781 5782 5785 5788 5790 5791 5794 5795 5797 5798 5799 5801 5803 5804 5805 5806 5807 5808 5810 5811 5812 5812 5813 5813 5813 5814 5813 5812 5811 5809 5808 5807 5805 5805 5802 5801 5808 5811 5810 5804 5797 5800 5810 5813 5814 5813 5813 5813 5812 5811 5810 5809 5808 5808 5808 5808
5687 5690 5693 5695 5698 5702 5708 5715 5715 5711 5713 5716 5716 5717 5718 5718 5715 5715 5730 5748 5748 5744 5747 5752 5758 5763 5764 5765 5766 5768 5770 5772 5775 5776 5779 5781 5783 5786 5789 5790 5792 5793 5794 5797 5798 5799 5800 5801 5802 5803 5804 5806 5806 5807 5808 5808 5809 5809 5809 5808 5806 5804 5803 5801 5800 5800 5799 5799 5804 5805 5803 5798 5795 5799 5805 5807 5808 5807 5807 5808 5808 5807 5806 5805 5805 5803 5803 5803
5680 5683 5686 5688 5690 5696 5703 5707 5706 5702 5704 5708 5709 5709 5709 5704 5703 5715 5734 5742 5739 5739 5741 5745 5752 5756 5756 5757 5759 5761 5764 5765 5768 5770 5772 5774 5776 5780 5783 5785 5787 5788 5789 5793 5793 5793 5794 5796 5797 5798 5800 5801 5801 5802 5802 5803 5803 5803 5803 5803 5801 5800 5797 5795 5796 5796 5795 5796 5797 5798 5797 5793 5793 5798 5802 5802 5803 5802 5802 5803 5803 5803 5802 5802 5801 5800 5799 5798
5672 5675 5678 5682 5685 5689 5694 5697 5697 5696 5697 5701 5701 5699 5694 5690 5700 5719 5729 5733 5735 5735 5735 5738 5744 5746 5747 5750 5753 5756 5758 5759 5763 5765 5766 5768 5770 5774 5778 5780 5782 5784 5786 5787 5787 5788 5789 5790 5793 5794 5795 5796 5795 5796 5797 5797 5796 5796 5797 5796 5796 5796 5794 5791 5791 5790 5790 5790 5791 5792 5791 5789 5791 5795 5796 5797 5798 5799 5798 5798 5797 5797 5797 5797 5797 5796 5795 5795
5663 5666 5671 5675 5678 5681 5685 5689 5690 5689 5690 5693 5691 5685 5681 5685 5701 5716 5722 5728 5730 5728 5729 5730 5731 5734 5737 5742 5746 5749 5751 5753 5757 5758 5759 5762 5765 5769 5773 5775 5778 5779 5780 5781 5781 5783 5783 5785 5788 5788 5789 5790 5789 5790 5790 5790 5790 5791 5791 5790 5790 5792 5791 5788 5785 5784 5785 5784 5784 5786 5785 5786 5789 5790 5790 5792 5793 5795 5794 5792 5792 5792 5792 5793 5792 5792 5791 5790
5652 5658 5662 5665 5671 5676 5678 5681 5683 5680 5681 5683 5677 5672 5675 5687 5702 5711 5715 5720 5721 5721 5723 5721 5721 5724 5727 5733 5739 5742 5745 5748 5750 5751 5753 5756 5759 5763 5767 5770 5772 5773 5775 5776 5776 5777 5777 5779 5782 5782 5782 5783 5783 5783 5784 5784 5784 5784 5784 5785 5786 5787 5786 5784 5781 5780 5780 5777 5777 5779 5780 5782 5784 5784 5786 5788 5789 5790 5789 5787 5788 5788 5788 5788 5788 5787 5787 5785
5642 5647 5651 5658 5666 5669 5670 5674 5675 5672 5673 5672 5666 5666 5676 5689 5699 5703 5706 5710 5711 5712 5714 5713 5714 5716 5718 5724 5731 5735 5739 5741 5742 5744 5747 5749 5752 5758 5763 5765 5766 5768 5771 5772 5770 5771 5772 5772 5774 5775 5775 5776 5777 5777 5777 5778 5778 5777 5779 5780 5781 5781 5780 5779 5778 5776 5776 5772 5771 5773 5775 5777 5778 5778 5782 5785 5784 5784 5784 5783 5784 5784 5783 5783 5782 5782 5781 5781
5633 5636 5641 5651 5659 5660 5663 5667 5666 5664 5664 5661 5657 5664 5674 5683 5692 5697 5699 5701 5701 5702 5704 5705 5707 5709 5711 5715 5721 5727 5729 5731 5735 5738 5741 5742 5745 5752 5757 5758 5761 5764 5765 5764 5762 5764 5765 5765 5766 5767 5768 5768 5770 5770 5770 5771 5772 5772 5774 5774 5775 5774 5774 5775 5773 5771 5771 5768 5765 5767 5768 5771 5773 5775 5777 5778 5778 5778 5780 5780 5780 5780 5778 5777 5777 5776 5776 5776
5623 5625 5632 5647 5653 5652 5656 5659 5658 5656 5651 5648 5651 5661 5671 5679 5688 5692 5690 5689 5691 5692 5695 5700 5703 5702 5704 5708 5712 5716 5718 5721 5727 5730 5732 5735 5739 5746 5749 5751 5754 5756 5756 5755 5754 5756 5758 5758 5758 5759 5761 5761 5762 5763 5764 5766 5767 5768 5768 5768 5768 5768 5767 5768 5767 5766 5765 5763 5762 5761 5761 5765 5770 5771 5771 5771 5771 5774 5776 5776 5776 5775 5774 5773 5772 5772 5771 5771
5613 5615 5626 5641 5644 5644 5648 5650 5649 5644 5638 5640 5649 5658 5667 5674 5680 5681 5679 5679 5682 5684 5688 5694 5696 5694 5697 5701 5703 5706 5709 5713 5718 5721 5724 5728 5732 5737 5740 5742 5746 5748 5748 5746 5747 5749 5750 5750 5751 5752 5753 5753 5755 5758 5759 5761 5761 5761 5760 5760 5760 5761 5760 5760 5760 5760 5759 5759 5759 5758 5755 5759 5764 5766 5765 5763 5765 5771 5772 5770 5770 5770 5769 5769 5768 5767 5767 5766
5603 5605 5619 5633 5633 5635 5639 5637 5636 5634 5631 5636 5645 5653 5660 5665 5670 5671 5671 5673 5674 5677 5681 5685 5687 5689 5692 5695 5696 5700 5702 5704 5708 5712 5715 5720 5725 5729 5732 5735 5739 5740 5739 5738 5740 5743 5743 5743 5745 5745 5746 5748 5750 5752 5752 5752 5752 5752 5752 5753 5753 5754 5753 5752 5752 5753 5755 5756 5757 5755 5749 5751 5758 5761 5758 5755 5760 5768 5767 5764 5765 5764 5763 5763 5762 5762 5762 5762
5591 5595 5613 5623 5621 5625 5627 5624 5626 5626 5624 5631 5643 5649 5651 5657 5662 5664 5665 5667 5667 5670 5674 5676 5680 5684 5686 5688 5690 5693 5693 5695 5699 5703 5707 5713 5717 5721 5724 5727 5729 5730 5730 5731 5734 5736 5735 5735 5736 5737 5739 5742 5742 5742 5743 5743 5744 5745 5745 5746 5747 5746 5746 5746 5747 5750 5752 5752 5752 5749 5743 5745 5753 5756 5751 5749 5757 5762 5759 5758 5759 5758 5758 5757 5757 5757 5756 5756
5581 5590 5606 5611 5609 5615 5615 5613 5617 5617 5618 5630 5640 5638 5640 5647 5653 5654 5657 5661 5662 5664 5667 5670 5674 5677 5679 5682 5683 5683 5685 5688 5690 5694 5701 5705 5709 5714 5716 5716 5719 5720 5722 5724 5727 5728 5726 5725 5727 5729 5732 5734 5734 5735 5736 5736 5736 5737 5738 5740 5742 5743 5744 5744 5744 5745 5744 5744 5745 5742 5738 5740 5747 5749 5745 5746 5753 5755 5753 5753 5753 5752 5753 5752 5751 5751 5750 5749
5574 5585 5594 5595 5599 5605 5601 5601 5608 5609 5614 5627 5628 5626 5632 5640 5642 5645 5651 5655 5658 5660 5661 5665 5669 5671 5673 5676 5676 5677 5679 5681 5682 5689 5694 5697 5701 5706 5707 5708 5710 5712 5715 5718 5720 5720 5718 5718 5720 5722 5723 5725 5726 5727 5729 5729 5730 5731 5734 5736 5737 5739 5739 5738 5739 5738 5736 5738 5738 5734 5732 5736 5741 5743 5742 5742 5744 5746 5746 5747 5746 5747 5748 5747 5745 5744 5743 5743
5567 5574 5580 5583 5588 5591 5588 5593 5602 5604 5610 5618 5617 5619 5628 5631 5633 5640 5644 5646 5650 5653 5654 5659 5664 5664 5665 5666 5668 5670 5672 5674 5678 5683 5685 5687 5692 5697 5698 5699 5702 5705 5708 5711 5711 5711 5710 5709 5712 5713 5714 5717 5719 5721 5725 5726 5726 5726 5728 5730 5729 5731 5730 5730 5732 5730 5728 5730 5729 5726 5728 5733 5736 5738 5737 5737 5738 5738 5738 5738 5740 5742 5742 5740 5738 5737 5738 5738
5556 5561 5567 5573 5576 5578 5581 5589 5594 5595 5602 5607 5607 5611 5617 5620 5627 5634 5634 5635 5640 5644 5647 5652 5656 5656 5656 5657 5660 5663 5666 5670 5673 5674 5676 5680 5685 5688 5690 5691 5693 5697 5700 5701 5702 5702 5701 5701 5703 5705 5707 5711 5715 5718 5720 5720 5719 5719 5721 5722 5721 5722 5722 5721 5721 5720 5721 5721 5720 5723 5726 5728 5731 5733 5732 5733 5733 5731 5731 5732 5734 5735 5733 5732 5731 5731 5732 5733
5544 5549 5557 5565 5566 5568 5574 5581 5582 5585 5594 5598 5598 5603 5609 5614 5621 5623 5622 5627 5634 5638 5640 5643 5646 5646 5648 5651 5653 5656 5662 5665 5666 5667 5671 5675 5678 5679 5680 5682 5685 5688 5691 5692 5692 5693 5692 5691 5695 5699 5701 5706 5712 5713 5711 5710 5711 5712 5713 5713 5713 5714 5714 5712 5711 5713 5715 5712 5713 5722 5723 5719 5725 5729 5728 5729 5728 5726 5727 5728 5727 5726 5725 5724 5724 5724 5726 5726
5533 5540 5551 5558 5559 5560 5566 5573 5577 5581 5587 5589 5590 5596 5601 5605 5610 5611 5614 5623 5628 5629 5631 5632 5636 5639 5645 5649 5650 5651 5655 5657 5658 5663 5668 5670 5670 5670 5671 5674 5676 5680 5682 5682 5683 5685 5684 5684 5689 5693 5694 5699 5705 5704 5702 5702 5704 5704 5704 5704 5706 5706 5705 5705 5706 5708 5708 5703 5707 5717 5715 5711 5719 5723 5722 5724 5723 5722 5724 5722 5720 5719 5718 5717 5717 5717 5718 5718
5525 5532 5543 5549 5549 5552 5559 5567 5572 5575 5579 5581 5582 5586 5591 5595 5601 5605 5611 5617 5617 5618 5621 5624 5631 5639 5643 5645 5643 5643 5647 5650 5653 5660 5663 5664 5663 5662 5664 5666 5668 5672 5674 5674 5676 5677 5676 5678 5683 5686 5686 5691 5697 5695 5693 5694 5695 5695 5696 5697 5699 5700 5700 5700 5701 5701 5698 5695 5702 5710 5705 5705 5714 5716 5716 5718 5717 5716 5717 5715 5715 5715 5713 5711 5710 5710 5711 5711
5517 5525 5534 5538 5538 5544 5551 5558 5561 5563 5569 5572 5573 5578 5584 5588 5594 5600 5604 5605 5606 5611 5615 5620 5629 5635 5636 5636 5634 5635 5642 5647 5650 5655 5656 5655 5656 5657 5658 5659 5662 5666 5667 5667 5669 5670 5670 5672 5676 5678 5677 5681 5689 5688 5684 5685 5686 5686 5688 5690 5694 5696 5695 5692 5692 5694 5692 5691 5699 5702 5697 5701 5709 5709 5709 5710 5708 5707 5708 5708 5710 5709 5706 5705 5704 5704 5704 5704
5511 5517 5525 5527 5529 5535 5543 5548 5550 5553 5557 5559 5562 5570 5576 5580 5588 5594 5595 5596 5601 5605 5608 5615 5623 5625 5625 5625 5624 5629 5640 5644 5646 5649 5648 5647 5649 5652 5653 5653 5655 5658 5659 5660 5663 5664 5665 5665 5668 5670 5668 5673 5683 5680 5675 5678 5678 5675 5679 5686 5691 5690 5686 5685 5687 5690 5688 5688 5692 5691 5689 5696 5703 5702 5701 5701 5699 5700 5701 5701 5701 5700 5699 5699 5699 5699 5699 5698
5504 5509 5514 5516 5519 5525 5533 5538 5541 5542 5545 5549 5557 5564 5569 5575 5584 5587 5583 5585 5591 5596 5601 5609 5615 5613 5612 5614 5619 5629 5638 5638 5638 5640 5639 5638 5641 5643 5644 5645 5648 5650 5651 5654 5656 5658 5660 5660 5662 5663 5660 5666 5674 5670 5668 5671 5666 5664 5675 5687 5687 5682 5679 5679 5682 5684 5683 5682 5682 5681 5684 5693 5696 5692 5692 5694 5693 5694 5694 5694 5693 5693 5692 5692 5692 5692 5692 5692